• Currently

    Reported at Minneapolis, Minneapolis-St. Paul International Airport, MN
    9:53 AM CST MON MAY 29 2017
  • 59°F15°C
  • Overcast
    Overcast
  • Feels Like:59°F15°CDew Point:48°F9°CHumidity:68% Winds:NW 15 mph G 2124 kph G 34
    Pressure:29.8 in1009 hPaVisibility:10.00 miles16090.00 meters
Time Weather Temp Dew Point
Humidity Winds Visibility Pressure Precipitation
1 hr 24 hr
Monday, May 22
23:53 23:53 Partly Cloudy Partly Cloudy 46°F8°C 40°F4°C 79% WSW 8 mphWSW 13 kph 10.0 miles16.1 km 29.91 in1013 hPa 0.00 in0.00 mm --
22:53 22:53 Cloudy Cloudy 47°F8°C 40°F4°C 77% W 6 mphW 9 kph 10.0 miles16.1 km 29.91 in1013 hPa 0.00 in0.00 mm --
21:53 21:53 Cloudy Cloudy 47°F8°C 40°F4°C 77% W 9 mphW 15 kph 10.0 miles16.1 km 29.91 in1013 hPa 0.00 in0.00 mm --
21:30 21:30 Cloudy Cloudy 47°F8°C 40°F4°C 77% W 10 mphW 17 kph 10.0 miles16.1 km 29.91 in1013 hPa 0.00 in0.00 mm --
20:53 20:53 Cloudy Cloudy 47°F8°C 40°F4°C 77% W 10 mphW 17 kph 10.0 miles16.1 km 29.91 in1013 hPa 0.00 in0.00 mm --
20:49 20:49 Cloudy Cloudy 46°F8°C 39°F4°C 76% W 12 mphW 19 kph 10.0 miles16.1 km 29.91 in1013 hPa 0.00 in0.00 mm --
20:41 20:41 Cloudy Cloudy 47°F8°C 40°F4°C 77% W 13 mphW 20 kph 10.0 miles16.1 km 29.91 in1013 hPa 0.00 in0.00 mm --
19:53 19:53 Cloudy Cloudy 47°F8°C 39°F4°C 74% W 14 mphW 22 kph 10.0 miles16.1 km 29.91 in1013 hPa 0.00 in0.00 mm --
18:53 18:53 Cloudy Cloudy 48°F9°C 40°F4°C 74% W 14 mphW 22 kph 10.0 miles16.1 km 29.88 in1012 hPa 0.00 in0.00 mm --
17:53 17:53 Cloudy Cloudy 48°F9°C 41°F5°C 77% WNW 12 mphWNW 19 kph 10.0 miles16.1 km 29.88 in1012 hPa 0.00 in0.00 mm --
17:43 17:43 Cloudy Cloudy 48°F9°C 41°F5°C 77% WNW 12 mphWNW 19 kph 10.0 miles16.1 km 29.88 in1012 hPa 0.00 in0.00 mm --
16:53 16:53 Cloudy Cloudy 48°F9°C 42°F6°C 80% W 14 mphW 22 kph 10.0 miles16.1 km 29.88 in1012 hPa 0.00 in0.03 mm --
16:30 16:30 Cloudy Cloudy 49°F9°C 42°F6°C 77% W 18 mphW 30 kph 10.0 miles16.1 km 29.85 in1011 hPa 0.00 in0.03 mm --
15:53 15:53 Cloudy With Light Drizzle Cloudy With Light Drizzle 49°F9°C 43°F6°C 80% WNW 14 mphWNW 22 kph 10.0 miles16.1 km 29.85 in1011 hPa 0.00 in0.03 mm --
15:44 15:44 Cloudy With Light Drizzle Cloudy With Light Drizzle 49°F9°C 43°F6°C 80% W 17 mphW 28 kph 10.0 miles16.1 km 29.85 in1011 hPa 0.00 in0.03 mm --
14:53 14:53 Cloudy Cloudy 50°F10°C 44°F7°C 80% W 14 mphW 22 kph 10.0 miles16.1 km 29.83 in1010 hPa 0.00 in0.03 mm --
13:53 13:53 Cloudy Cloudy 49°F9°C 44°F7°C 83% W 13 mphW 20 kph 10.0 miles16.1 km 29.83 in1010 hPa 0.00 in0.03 mm --
13:06 13:06 Cloudy With Light Rain Cloudy With Light Rain 49°F9°C 46°F8°C 90% W 10 mphW 17 kph 4.0 miles6.4 km 29.8 in1009 hPa 0.00 in0.03 mm --
12:57 12:57 Cloudy With Light Rain Cloudy With Light Rain 50°F10°C 46°F8°C 86% W 13 mphW 20 kph 7.0 miles11.3 km 29.8 in1009 hPa 0.00 in0.03 mm --
12:53 12:53 Cloudy Cloudy 50°F10°C 45°F7°C 83% W 13 mphW 20 kph 9.0 miles14.5 km 29.8 in1009 hPa 0.00 in0.03 mm --
12:17 12:17 Cloudy Cloudy 50°F10°C 46°F8°C 86% W 10 mphW 17 kph 10.0 miles16.1 km 29.8 in1009 hPa 0.00 in0.03 mm --
11:53 11:53 Cloudy Cloudy 50°F10°C 46°F8°C 86% W 13 mphW 20 kph 10.0 miles16.1 km 29.77 in1008 hPa 0.01 in6.45 mm --
11:20 11:20 Cloudy With Light Drizzle Cloudy With Light Drizzle 50°F10°C 47°F8°C 89% W 14 mphW 22 kph 3.0 miles4.8 km 29.77 in1008 hPa 0.01 in6.45 mm --
11:06 11:06 Cloudy With Light Rain Cloudy With Light Rain 51°F11°C 48°F9°C 89% W 13 mphW 20 kph 1.5 miles2.4 km 29.77 in1008 hPa 0.01 in6.45 mm --
10:59 10:59 Cloudy With Drizzle Cloudy With Drizzle 51°F11°C 48°F9°C 89% W 8 mphW 13 kph 2.5 miles4.0 km 29.74 in1007 hPa 0.00 in0.03 mm --
10:53 10:53 Cloudy With Mist And Fog Cloudy With Mist And Fog 51°F11°C 48°F9°C 89% W 7 mphW 11 kph 5.0 miles8.0 km 29.74 in1007 hPa 0.00 in0.00 mm --
09:53 09:53 Cloudy Cloudy 51°F11°C 47°F8°C 86% WNW 6 mphWNW 9 kph 10.0 miles16.1 km 29.74 in1007 hPa 0.00 in0.00 mm --
09:46 09:46 Cloudy Cloudy 51°F11°C 47°F8°C 86% W 5 mphW 7 kph 7.0 miles11.3 km 29.74 in1007 hPa 0.00 in0.00 mm --
09:19 09:19 Cloudy With Mist And Fog Cloudy With Mist And Fog 49°F9°C 47°F8°C 93% WSW 3 mphWSW 6 kph 4.0 miles6.4 km 29.74 in1007 hPa 0.00 in0.00 mm --
09:02 09:02 Cloudy With Mist And Fog Cloudy With Mist And Fog 49°F9°C 47°F8°C 93% S 5 mphS 7 kph 2.5 miles4.0 km 29.74 in1007 hPa 0.00 in0.00 mm --
08:53 08:53 Cloudy With Mist And Fog Cloudy With Mist And Fog 49°F9°C 47°F8°C 93% SSE 3 mphSSE 6 kph 1.8 miles2.8 km 29.71 in1006 hPa 0.00 in0.00 mm --
08:43 08:43 Cloudy With Mist And Fog Cloudy With Mist And Fog 49°F9°C 47°F8°C 93% SE 3 mphSE 6 kph 1.5 miles2.4 km 29.71 in1006 hPa 0.00 in0.00 mm --
08:35 08:35 Cloudy With Mist And Fog Cloudy With Mist And Fog 49°F9°C 47°F8°C 93% SE 5 mphSE 7 kph 1.2 miles2.0 km 29.71 in1006 hPa 0.00 in0.00 mm --
08:03 08:03 Cloudy With Mist And Fog Cloudy With Mist And Fog 48°F9°C 46°F8°C 93% SE 6 mphSE 9 kph 1.0 miles1.6 km 29.71 in1006 hPa 0.00 in0.00 mm --
07:53 07:53 Cloudy With Mist And Fog Cloudy With Mist And Fog 48°F9°C 46°F8°C 93% SE 9 mphSE 15 kph 1.8 miles2.8 km 29.71 in1006 hPa 0.02 in12.90 mm --
07:48 07:48 Cloudy With Mist And Fog Cloudy With Mist And Fog 48°F9°C 46°F8°C 94% SSE 7 mphSSE 11 kph 2.5 miles4.0 km 29.71 in1006 hPa 0.02 in12.90 mm --
07:40 07:40 Cloudy With Mist And Fog Cloudy With Mist And Fog 48°F9°C 45°F7°C 89% SSE 7 mphSSE 11 kph 3.0 miles4.8 km 29.71 in1006 hPa 0.01 in6.45 mm --
07:28 07:28 Cloudy With Mist And Fog Cloudy With Mist And Fog 49°F9°C 45°F7°C 86% S 9 mphS 15 kph 5.0 miles8.0 km 29.71 in1006 hPa 0.01 in6.45 mm --
07:01 07:01 Cloudy With Light Rain Cloudy With Light Rain 49°F9°C 46°F8°C 90% SSE 7 mphSSE 11 kph 3.0 miles4.8 km 29.71 in1006 hPa 0.01 in6.45 mm --
06:53 06:53 Cloudy With Light Rain Cloudy With Light Rain 49°F9°C 45°F7°C 86% SSE 8 mphSSE 13 kph 2.5 miles4.0 km 29.71 in1006 hPa 0.01 in6.45 mm --
05:53 05:53 Cloudy Cloudy 50°F10°C 45°F7°C 83% SSE 10 mphSSE 17 kph 10.0 miles16.1 km 29.71 in1006 hPa 0.00 in0.03 mm --
05:36 05:36 Cloudy Cloudy 50°F10°C 45°F7°C 83% S 12 mphS 19 kph 10.0 miles16.1 km 29.71 in1006 hPa 0.00 in0.03 mm --
04:53 04:53 Cloudy Cloudy 52°F11°C 48°F9°C 86% SSE 9 mphSSE 15 kph 10.0 miles16.1 km 29.71 in1006 hPa 0.00 in0.00 mm --
04:16 04:16 Cloudy Cloudy 52°F11°C 49°F9°C 89% SE 7 mphSE 11 kph 10.0 miles16.1 km 29.74 in1007 hPa 0.00 in0.00 mm --
03:53 03:53 Cloudy Cloudy 52°F11°C 49°F9°C 89% SSE 9 mphSSE 15 kph 10.0 miles16.1 km 29.74 in1007 hPa 0.00 in0.00 mm --
02:53 02:53 Cloudy Cloudy 51°F11°C 49°F9°C 92% SE 9 mphSE 15 kph 9.0 miles14.5 km 29.74 in1007 hPa 0.00 in0.00 mm --
01:53 01:53 Cloudy Cloudy 51°F11°C 48°F9°C 89% SE 10 mphSE 17 kph 10.0 miles16.1 km 29.74 in1007 hPa 0.00 in0.00 mm --
00:53 00:53 Cloudy Cloudy 51°F11°C 48°F9°C 89% ESE 10 mphESE 17 kph 10.0 miles16.1 km 29.77 in1008 hPa 0.00 in0.03 mm --